Regional Weather Roundup
Issued by NWS

Home | Current Version | Previous Version | Graphics & Text | Print | Product List | Glossary On
Versions: 1 2 3 4 5 6 7 8 9 10 11 12 13 14 15 16 17 18 19 20 21 22 23 24 25 26 27 28 29 30 31 32 33 34 35 36 37 38 39 40 41 42 43 44 45 46 47 48 49 50
000
ASUS43 KLMK 250410
RWRKY
KENTUCKY REGIONAL WEATHER ROUNDUP
NATIONAL WEATHER SERVICE LOUISVILLE KY
1200 AM EDT TUE JUL 25 2017

NOTE "FAIR" INDICATES FEW OR NO CLOUDS BELOW 12,000 FEET
WITH NO SIGNIFICANT WEATHER AND/OR OBSTRUCTIONS TO VISIBILITY.

KYZ001>023-026-027-061>063-070>075-250500-
WESTERN AND SOUTH CENTRAL KENTUCKY

CITY           SKY/WX    TMP DP  RH WIND       PRES   REMARKS
PADUCAH        CLOUDY    76  73  91 CALM      29.99R FOG
HENDERSON      CLEAR     77  70  79 N6        30.01F
OWENSBORO      CLEAR     79  70  74 NE3       30.01S
HOPKINSVILLE   PTCLDY    80  75  86 CALM      30.01R
BOWLING GREEN  PTCLDY    81  74  79 CALM      30.01S
GLASGOW        CLOUDY    77  75  94 CALM      30.01S
$$

KYZ024-025-028>034-038-045-046-053-250500-
NORTH CENTRAL KENTUCKY

CITY           SKY/WX    TMP DP  RH WIND       PRES   REMARKS
LOUISVILLE/SDF PTCLDY    78  67  68 NE8       30.02S
LOUISVILLE/LOU CLEAR     77  69  76 N6        30.03S
FORT KNOX      CLEAR     74  67  76 NE6       30.01S
$$

KYZ035>037-039>044-047>052-055>060-089>105-250500-
NORTHEAST KENTUCKY

CITY           SKY/WX    TMP DP  RH WIND       PRES   REMARKS
LEXINGTON      MOCLDY    75  66  73 NE9       30.05R
COVINGTON      CLEAR     72  63  73 NE10      30.08R
FRANKFORT      CLOUDY    77  65  66 NE5       30.04R
$$

KYZ054-064>069-076>088-106>120-250500-
SOUTHEAST KENTUCKY

CITY           SKY/WX    TMP DP  RH WIND       PRES   REMARKS
JACKSON        CLOUDY    70  69  97 CALM      30.07R
LONDON         CLOUDY    74  67  78 NE3       30.06R
SOMERSET       LGT RAIN  72  72 100 CALM      30.06R
MIDDLESBORO    MOCLDY    73  69  88 CALM      30.07S
MONTICELLO     PTCLDY    73  72  96 NE12      30.06R
$$





USA.gov is the U.S. government's official web portal to all federal, state and local government web resources and services.